SB KEPS @ AMSAT $ORB09337.O Orbital Elements 09337.OSCAR
HR AMSAT ORBITAL ELEMENTS FOR OSCAR SATELLITES FROM WA5QGD FORT WORTH,TX December 3, 2009 Send Subscribe/unsubscribe to KEPS at http://www.amsat.org/mailman/listinfo/keps BID: ORB09337.O TO ALL RADIO AMATEURS BT
Satellite: AO-07 Catalog number: 07530 Epoch time: 09336.63976585 Element set: 645 Inclination: 101.4149 deg RA of node: 355.0553 deg Eccentricity: 0.0011907 Arg of perigee: 299.9540 deg Mean anomaly: 060.0345 deg Mean motion: 12.53577028 rev/day Decay rate: -2.7e-07 rev/day^2 Epoch rev: 60382 Checksum: 307
Satellite: FO-29 Catalog number: 24278 Epoch time: 09337.64836733 Element set: 190 Inclination: 098.5226 deg RA of node: 188.6834 deg Eccentricity: 0.0349812 Arg of perigee: 271.1084 deg Mean anomaly: 085.0002 deg Mean motion: 13.52946874 rev/day Decay rate: 3.0e-08 rev/day^2 Epoch rev: 65666 Checksum: 334
Satellite: SO-33 Catalog number: 25509 Epoch time: 09336.71532207 Element set: 0600 Inclination: 031.4328 deg RA of node: 179.5305 deg Eccentricity: 0.0354488 Arg of perigee: 011.9217 deg Mean anomaly: 348.9547 deg Mean motion: 14.28271273 rev/day Decay rate: 9.9e-07 rev/day^2 Epoch rev: 57994 Checksum: 325
Satellite: RS-22 Catalog number: 27939 Epoch time: 09336.68136717 Element set: 0953 Inclination: 097.9172 deg RA of node: 205.1657 deg Eccentricity: 0.0013083 Arg of perigee: 324.8394 deg Mean anomaly: 035.1945 deg Mean motion: 14.63362530 rev/day Decay rate: 8.2e-07 rev/day^2 Epoch rev: 33021 Checksum: 310
Satellite: VO-52 Catalog number: 28650 Epoch time: 09336.75208913 Element set: 0378 Inclination: 097.7229 deg RA of node: 032.5614 deg Eccentricity: 0.0026802 Arg of perigee: 196.5776 deg Mean anomaly: 163.4530 deg Mean motion: 14.81651747 rev/day Decay rate: 3.02e-06 rev/day^2 Epoch rev: 24760 Checksum: 318
Satellite: SO-67 Catalog number: 35870 Epoch time: 09337.86991898 Element set: 228 Inclination: 097.3619 deg RA of node: 026.4550 deg Eccentricity: 0.0012539 Arg of perigee: 029.8418 deg Mean anomaly: 323.6896 deg Mean motion: 15.22874477 rev/day Decay rate: 3.49e-06 rev/day^2 Epoch rev: 1173 Checksum: 359
/EX SB KEPS @ AMSAT $ORB09337.D Orbital Elements 09337.MICROS
HR AMSAT ORBITAL ELEMENTS FOR THE MICROSATS FROM WA5QGD FORT WORTH,TX December 3, 2009 Send Subscribe/unsubscribe to KEPS at http://www.amsat.org/mailman/listinfo/keps BID: ORB09337.D TO ALL RADIO AMATEURS BT
Satellite: UO-11 Catalog number: 14781 Epoch time: 09336.65769939 Element set: 0121 Inclination: 098.0854 deg RA of node: 022.4992 deg Eccentricity: 0.0009455 Arg of perigee: 147.7700 deg Mean anomaly: 212.4061 deg Mean motion: 14.79751778 rev/day Decay rate: 1.62e-06 rev/day^2 Epoch rev: 38274 Checksum: 328
Satellite: AO-16 Catalog number: 20439 Epoch time: 09337.80482660 Element set: 765 Inclination: 098.3044 deg RA of node: 298.7047 deg Eccentricity: 0.0011515 Arg of perigee: 031.0117 deg Mean anomaly: 329.1735 deg Mean motion: 14.31841111 rev/day Decay rate: -6.0e-08 rev/day^2 Epoch rev: 3742 Checksum: 280
Satellite: LO-19 Catalog number: 20442 Epoch time: 09335.66819094 Element set: 673 Inclination: 098.2656 deg RA of node: 303.2643 deg Eccentricity: 0.0012305 Arg of perigee: 033.4726 deg Mean anomaly: 326.7275 deg Mean motion: 14.32074421 rev/day Decay rate: -4.2e-07 rev/day^2 Epoch rev: 3728 Checksum: 292
Satellite: AO-27 Catalog number: 22825 Epoch time: 09336.85944799 Element set: 0400 Inclination: 098.4600 deg RA of node: 285.1572 deg Eccentricity: 0.0009096 Arg of perigee: 123.6058 deg Mean anomaly: 236.5985 deg Mean motion: 14.29279881 rev/day Decay rate: -3.2e-07 rev/day^2 Epoch rev: 84400 Checksum: 336
Satellite: IO-26 Catalog number: 22826 Epoch time: 09337.79977531 Element set: 135 Inclination: 098.4537 deg RA of node: 286.7494 deg Eccentricity: 0.0009660 Arg of perigee: 117.1440 deg Mean anomaly: 243.0723 deg Mean motion: 14.29533570 rev/day Decay rate: -6.0e-08 rev/day^2 Epoch rev: 84424 Checksum: 323
Satellite: GO-32 Catalog number: 25397 Epoch time: 09337.51048691 Element set: 55 Inclination: 098.3176 deg RA of node: 350.7089 deg Eccentricity: 0.0002085 Arg of perigee: 104.6843 deg Mean anomaly: 255.4574 deg Mean motion: 14.23168245 rev/day Decay rate: 1.24e-06 rev/day^2 Epoch rev: 59221 Checksum: 308
Satellite: NO-44 Catalog number: 26931 Epoch time: 09337.52280023 Element set: 328 Inclination: 067.0528 deg RA of node: 348.0834 deg Eccentricity: 0.0007065 Arg of perigee: 269.4329 deg Mean anomaly: 090.5963 deg Mean motion: 14.29575732 rev/day Decay rate: 2.1e-07 rev/day^2 Epoch rev: 42678 Checksum: 315
Satellite: SO-50 Catalog number: 27607 Epoch time: 09337.82463169 Element set: 47 Inclination: 064.5590 deg RA of node: 229.8779 deg Eccentricity: 0.0046854 Arg of perigee: 159.8194 deg Mean anomaly: 200.4741 deg Mean motion: 14.71478920 rev/day Decay rate: -5.5e-07 rev/day^2 Epoch rev: 37363 Checksum: 341
Satellite: CO-55 Catalog number: 27844 Epoch time: 09337.58700765 Element set: 725 Inclination: 098.7120 deg RA of node: 344.3635 deg Eccentricity: 0.0010278 Arg of perigee: 019.8360 deg Mean anomaly: 340.3202 deg Mean motion: 14.20670941 rev/day Decay rate: 7.2e-07 rev/day^2 Epoch rev: 33331 Checksum: 290
Satellite: CO-57 Catalog number: 27848 Epoch time: 09337.72925771 Element set: 677 Inclination: 098.7167 deg RA of node: 343.5724 deg Eccentricity: 0.0010329 Arg of perigee: 023.2849 deg Mean anomaly: 336.8769 deg Mean motion: 14.20468443 rev/day Decay rate: 4.6e-07 rev/day^2 Epoch rev: 33329 Checksum: 351
Satellite: AO-51 Catalog number: 28375 Epoch time: 09336.52836688 Element set: 0548 Inclination: 098.0532 deg RA of node: 336.3424 deg Eccentricity: 0.0084461 Arg of perigee: 334.9344 deg Mean anomaly: 024.7758 deg Mean motion: 14.40661273 rev/day Decay rate: 2.6e-07 rev/day^2 Epoch rev: 28519 Checksum: 331
Satellite: CO-56 Catalog number: 28941 Epoch time: 09297.68475575 Element set: 556 Inclination: 098.0955 deg RA of node: 138.9518 deg Eccentricity: 0.0011688 Arg of perigee: 319.8691 deg Mean anomaly: 040.7485 deg Mean motion: 16.46998778 rev/day Decay rate: 1.4491492e-01 rev/day^2 Epoch rev: 20790 Checksum: 407
Satellite: GENESAT1 Catalog number: 29655 Epoch time: 09337.88996673 Element set: 879 Inclination: 040.0289 deg RA of node: 196.8480 deg Eccentricity: 0.0005421 Arg of perigee: 316.5182 deg Mean anomaly: 043.5208 deg Mean motion: 15.70485252 rev/day Decay rate: 1.5560e-04 rev/day^2 Epoch rev: 16911 Checksum: 330
Satellite: CP3 Catalog number: 31129 Epoch time: 09337.67556998 Element set: 368 Inclination: 097.9679 deg RA of node: 022.4418 deg Eccentricity: 0.0103301 Arg of perigee: 119.8819 deg Mean anomaly: 241.2689 deg Mean motion: 14.52186742 rev/day Decay rate: 1.08e-06 rev/day^2 Epoch rev: 13948 Checksum: 341
Satellite: CO-65 Catalog number: 32785 Epoch time: 09337.24395322 Element set: 540 Inclination: 097.9260 deg RA of node: 039.6236 deg Eccentricity: 0.0014560 Arg of perigee: 198.0386 deg Mean anomaly: 162.0307 deg Mean motion: 14.81550679 rev/day Decay rate: 8.2e-07 rev/day^2 Epoch rev: 8647 Checksum: 321
Satellite: KKS-1 Catalog number: 33493 Epoch time: 09337.71312471 Element set: 997 Inclination: 098.0700 deg RA of node: 090.8120 deg Eccentricity: 0.0021062 Arg of perigee: 055.3946 deg Mean anomaly: 304.9254 deg Mean motion: 14.80791036 rev/day Decay rate: 3.68e-06 rev/day^2 Epoch rev: 4655 Checksum: 296
Satellite: SOHLA-1 Catalog number: 33496 Epoch time: 09337.80396812 Element set: 961 Inclination: 098.0490 deg RA of node: 084.5807 deg Eccentricity: 0.0007707 Arg of perigee: 100.1682 deg Mean anomaly: 260.0395 deg Mean motion: 14.69457981 rev/day Decay rate: 2.5e-07 rev/day^2 Epoch rev: 4618 Checksum: 318
/EX SB KEPS @ AMSAT $ORB09337.W Orbital Elements 09337.WEATHER
HR AMSAT ORBITAL ELEMENTS FOR WEATHER SATELLITES FROM WA5QGD FORT WORTH,TX December 3, 2009 Send Subscribe/unsubscribe to KEPS at http://www.amsat.org/mailman/listinfo/keps BID: ORB09337.W TO ALL RADIO AMATEURS BT
Satellite: NOAA-10 Catalog number: 16969 Epoch time: 09336.60156724 Element set: 0858 Inclination: 098.6775 deg RA of node: 002.2155 deg Eccentricity: 0.0013051 Arg of perigee: 067.0790 deg Mean anomaly: 293.1772 deg Mean motion: 14.27400961 rev/day Decay rate: 8.1e-07 rev/day^2 Epoch rev: 20753 Checksum: 303
Satellite: NOAA-11 Catalog number: 19531 Epoch time: 09336.65243752 Element set: 0873 Inclination: 098.7801 deg RA of node: 063.9650 deg Eccentricity: 0.0011522 Arg of perigee: 352.2008 deg Mean anomaly: 007.8992 deg Mean motion: 14.14910021 rev/day Decay rate: 2.53e-06 rev/day^2 Epoch rev: 09334 Checksum: 284
Satellite: NOAA-12 Catalog number: 21263 Epoch time: 09336.97472972 Element set: 0377 Inclination: 098.7706 deg RA of node: 345.1192 deg Eccentricity: 0.0012750 Arg of perigee: 020.6009 deg Mean anomaly: 339.5682 deg Mean motion: 14.25605218 rev/day Decay rate: 5.9e-07 rev/day^2 Epoch rev: 96444 Checksum: 318
Satellite: MET-3/5 Catalog number: 21655 Epoch time: 09336.95248671 Element set: 0713 Inclination: 082.5522 deg RA of node: 087.2812 deg Eccentricity: 0.0014377 Arg of perigee: 116.6276 deg Mean anomaly: 243.6321 deg Mean motion: 13.17021607 rev/day Decay rate: 5.1e-07 rev/day^2 Epoch rev: 87984 Checksum: 306
Satellite: MET-2/21 Catalog number: 22782 Epoch time: 09337.53832954 Element set: 634 Inclination: 082.5500 deg RA of node: 047.6672 deg Eccentricity: 0.0021230 Arg of perigee: 229.0042 deg Mean anomaly: 130.9286 deg Mean motion: 13.83641219 rev/day Decay rate: -7.2e-07 rev/day^2 Epoch rev: 82102 Checksum: 280
Satellite: OKEAN-4 Catalog number: 23317 Epoch time: 09337.75757559 Element set: 90 Inclination: 082.5382 deg RA of node: 176.2457 deg Eccentricity: 0.0022341 Arg of perigee: 161.7997 deg Mean anomaly: 198.3991 deg Mean motion: 14.82743606 rev/day Decay rate: 1.81e-06 rev/day^2 Epoch rev: 81749 Checksum: 343
